Back to catalog

STARLINK-37381

AliveCommunicationsSSO
NORAD 68774·PAYLOAD·🇺🇸 United States

Launched Apr 19, 2026 from Vandenberg Space Force Base

Loading…

Next Passes (next 24 hours)

TLE

FreshSource: CelesTrak SupGP

Epoch: Sep 14, 2026, 15:57 UTC

1 68774C 26086J   26257.66506944 -.00035099  00000+0 -10897-2 0  2577
2 68774  97.2842 293.1587 0001067 108.7795 103.4597 15.33454310    11

Track STARLINK-37381 in real time with AllMySat

Download on the App Store